Regional Weather Roundup
Issued by NWS

Home | Current Version | Previous Version | Text Only | Print | Product List | Glossary On
Versions: 1 2 3 4 5 6 7 8 9 10 11 12 13 14 15 16 17 18 19 20 21 22 23 24 25 26 27 28 29 30 31 32 33 34 35 36 37 38 39 40 41 42 43 44 45 46 47 48 49 50
841
ASUS44 KLIX 290201
RWRLA
LOUISIANA WEATHER ROUNDUP
NATIONAL WEATHER SERVICE NEW ORLEANS LA
900 PM CDT THU AUG 28 2014

NOTE: "FAIR" INDICATES FEW OR NO CLOUDS BELOW 12,000 FEET WITH NO
      SIGNIFICANT WEATHER AND/OR OBSTRUCTIONS TO VISIBILITY.
      SKY/WX - SKY CONDITION AND SIGNIFICANT WEATHER.
      TMP - AIR TEMPERATURE.    DP   - DEWPOINT TEMPERATURE.
      RH  - RELATIVE HUMIDITY.  PRES - PRESSURE.
      HX  - HEAT INDEX.         WCI  - WIND CHILL INDEX.

*  THESE STATIONS ARE NOT NWS OR FAA STATIONS AND ARE NOT UNDER
   NWS QUALITY CONTROL.

LAZ040-048-061>063-065-066-069-290300-
SOUTHEAST LOUISIANA

CITY           SKY/WX    TMP DP  RH WIND       PRES   REMARKS
N.O. AUDUBON   NOT AVBL
N.O. INTL ARPT PTCLDY    83  72  69 SE7       29.94R
N.O. LAKEFRONT PTCLDY    83  73  72 SE8       29.95R
N.O. DOWNTOWN* FAIR      84  72  65 SE3       29.95R
SLIDELL        PTCLDY    78  74  87 CALM      29.95R
BATON ROUGE    MOCLDY    81  75  82 CALM      29.94R
BOOTHVILLE     CLEAR     83  74  74 E6        29.95R
BELLE CHASSE   MOCLDY    82  73  74 E6        29.94R
BOGALUSA*      FAIR      83  73  72 CALM      29.97R
GALLIANO*      NOT AVBL
NEW ROADS*     FAIR      81  74  81 E3        29.93R
GONZALES*      FAIR      82  77  85 CALM      29.94R
HAMMOND*       NOT AVBL
HOUMA*         CLEAR     79  72  77 CALM      29.94R
PORT FOURCHON* CLEAR     84  73  70 SE13G18   29.96R

$$

LAZ041-044-053-054-290300-
SOUTHWEST LOUISIANA

CITY           SKY/WX    TMP DP  RH WIND       PRES   REMARKS
LAKE CHARLES   PTCLDY    80  75  84 S5        29.92R
LAFAYETTE      MOCLDY    79  77  94 CALM      29.93R
PATTERSON        N/A     79  75  89 SE5       29.97R
SALT POINT       N/A     85  76  74 SE6       29.93R
NEW IBERIA     MOCLDY    80  76  87 CALM      29.93R
CHENAULT AIRPK CLEAR     79  73  83 SE7       29.93R

$$

LAZ027-028-290300-
CENTRAL LOUISIANA

CITY           SKY/WX    TMP DP  RH WIND       PRES   REMARKS
FORT POLK      CLEAR     78  72  81 S3        29.92R
ALEXANDRIA INT CLEAR     77  71  82 CALM      29.91R
ALEXANDRIA     PTCLDY    78  75  90 CALM      29.93R

$$

LAZ001-002-290300-
NORTHWEST LOUISIANA

CITY           SKY/WX    TMP DP  RH WIND       PRES   REMARKS
SHREVEPORT     PTCLDY    84  69  60 SW6       29.90R
BARKSDALE AFB  CLEAR     81  71  71 E2        29.90R
DTN SHREVEPORT CLEAR     77  74  90 CALM      29.90R

$$

LAZ014-016-290300-
NORTHEAST LOUISIANA

CITY           SKY/WX    TMP DP  RH WIND       PRES   REMARKS
MONROE         PTCLDY    80  71  74 CALM      29.93R
TALLULAH       MOCLDY    77  73  87 SE3       29.92S

$$




USA.gov is the U.S. government's official web portal to all federal, state and local government web resources and services.